ZF1EJ Savannah KY current weather conditions

sailwx.info

Wind from 085 at 0 knots gusting 2

Air temperature 26.1° C

Last reported at 2017-Sep-23 11:00 UTC.
Time now 2017-Sep-23 11:21 UTC

Location: N 19°16' W 081°18'.
View on Google Maps.

See reports from other nearby stations

  
Tides and Currents Weather Stations Pressure Air Temp Water Temp Dewpoint Dewpoint Depression Visibility Wind Speed Wind Dir Waves Ship Positions
date/time (UTC)wind fromknots sea level pressurealtimeterstation pressurevisibilityair tempwater tempwave heightnotes
2017-Sep-23 11:00 085 0 gusting 2 26.1
2017-Sep-23 10:00 069 1 gusting 1 26.1
2017-Sep-23 09:00 083 1 gusting 2 26.7
2017-Sep-23 08:00 090 1 gusting 2 26.7
2017-Sep-23 07:00 096 1 gusting 2 26.7
2017-Sep-23 06:00 103 1 gusting 1 27.2
2017-Sep-23 05:00 069 27.2
2017-Sep-23 04:00 342 27.2
2017-Sep-23 03:00 052 0 gusting 0 27.8
2017-Sep-23 02:00 049 0 gusting 2 27.8
2017-Sep-23 01:00 081 1 gusting 2 28.3
2017-Sep-23 00:00 072 1 gusting 6 28.9
2017-Sep-22 23:00 067 5 gusting 7 30.0
2017-Sep-22 22:00 069 3 gusting 7 31.1
2017-Sep-22 21:00 046 3 gusting 11 30.6
2017-Sep-22 20:00 074 5 gusting 8 31.7
2017-Sep-22 19:00 018 7 gusting 8 32.2
2017-Sep-22 18:00 105 2 gusting 8 32.2
2017-Sep-22 17:00 159 6 gusting 12 31.7
2017-Sep-22 16:00 161 6 gusting 8 31.7
2017-Sep-22 15:00 106 4 gusting 10 30.6
2017-Sep-22 14:00 066 4 gusting 7 31.1
2017-Sep-22 13:00 073 4 gusting 5 29.4
2017-Sep-22 12:00 076 1 gusting 2 27.2
2017-Sep-22 11:00 081 2 gusting 2 26.7
2017-Sep-22 09:00 074 6 gusting 11 26.1
2017-Sep-22 08:00 118 4 gusting 6 27.8
2017-Sep-22 07:00 060 2 gusting 8 28.3
2017-Sep-22 06:00 067 4 gusting 5 27.8
2017-Sep-22 05:00 041 2 gusting 5 27.2
2017-Sep-22 04:00 063 2 gusting 4 27.2
2017-Sep-22 03:00 063 3 gusting 4 27.2
2017-Sep-22 02:00 058 2 gusting 5 27.8
2017-Sep-22 01:00 037 2 gusting 5 28.3
2017-Sep-22 00:00 034 4 gusting 6 28.9
2017-Sep-21 23:00 038 5 gusting 11 29.4
2017-Sep-21 22:00 074 6 gusting 8 30.6
2017-Sep-21 21:00 048 7 gusting 12 31.1
2017-Sep-21 20:00 046 9 gusting 11 31.7
2017-Sep-21 19:00 084 6 gusting 12 32.2
2017-Sep-21 18:00 031 6 gusting 13 32.2
2017-Sep-21 17:00 020 5 gusting 11 31.7
2017-Sep-21 16:00 079 10 gusting 11 31.1
2017-Sep-21 15:00 061 3 gusting 10 31.7
2017-Sep-21 14:00 104 5 gusting 8 30.6
2017-Sep-21 13:00 061 5 gusting 5 29.4
2017-Sep-21 12:00 069 1 gusting 1 27.2
2017-Sep-21 11:00 058 0 gusting 1 26.1